[[{"header":{"parameterUnit":"m.s-1","parameterCategory":1,"la1":30.2991,"la2":30.254,"lo1":-89.0895,"lo2":-89.0444,"dy":0.0017,"dx":0.0017,"nx":28,"ny":28,"refTime":"2023-09-11T09:00:00:Z","depth":0,"parameterNumber":2,"parameterNumberName":"U-component_of_WINDS"},"data":[0,0,0,0,0,0,0,0,0,0,0,0,0,0,0,0,0,0,0,0,0,0,0,0,0,0,0,0,0,0,0,0,0,0,0,0,0,0,0,0,0,0,0,0,0,0,0,0,0,0,0,0,0,0,0,0,0,0,2.4924,2.4925,0,2.5035,2.5036,2.5037,2.502,2.5018,2.5016,2.5014,2.5125,2.513,2.5135,0,0,0,0,0,0,0,0,0,0,0,0,0,2.4692,2.4697,2.4923,2.4925,2.4926,2.5035,2.5036,2.5038,2.502,2.5018,2.5015,2.5013,2.5124,2.513,2.5135,0,0,0,0,0,0,0,0,0,0,0,0,0,2.4797,2.4698,2.4923,2.4931,2.4932,2.5034,2.5036,2.5038,2.5021,2.5018,2.5015,2.5012,2.5122,2.5129,2.5136,2.5237,0,0,2.5158,2.5161,0,0,0,0,0,0,0,0,2.4791,2.4806,2.4928,2.493,2.4932,2.5011,2.4996,2.5105,2.5021,2.4987,2.5014,2.5011,2.5089,2.5099,2.5126,2.5242,2.5247,2.5158,2.5163,2.5166,2.5168,0,0,0,0,0,0,0,2.4784,2.4801,2.4967,2.493,2.4933,2.4927,2.4939,2.5016,2.5053,2.499,2.4989,2.5002,2.509,2.5119,2.5129,2.5249,2.5158,2.5164,2.5169,2.5172,2.5452,2.5455,0,0,0,0,0,0,2.4775,2.4795,2.4964,2.4971,2.4853,2.4934,2.4947,2.4988,2.5052,2.5059,2.5005,2.5001,2.5109,2.512,2.5132,2.5253,2.5166,2.5172,2.5176,2.5448,2.5452,2.5456,0,0,0,0,0,0,2.477,2.479,2.4959,2.4883,2.4904,2.4941,2.4987,2.4992,2.5021,2.5063,2.5069,2.5028,2.5107,2.5122,2.5211,2.5257,2.5175,2.5182,2.5445,2.545,2.5454,2.5497,0,0,0,0,0,0,2.4764,2.4789,2.4828,2.4884,2.4908,2.5037,2.499,2.4996,2.5034,2.503,2.5087,2.5093,2.5106,2.52,2.5218,2.5265,2.5188,2.5441,2.5447,2.5452,2.5491,2.5502,2.5512,0,0,0,0,0,2.4755,2.4835,2.483,2.4851,2.4958,2.504,2.5053,2.5067,2.5038,2.5077,2.5104,2.5091,2.525,2.521,2.5229,2.5279,2.5438,2.5445,2.5452,2.5487,2.55,2.5512,0,0,0,0,0,0,2.4783,2.4843,2.4838,2.4938,2.4984,2.5037,2.5086,2.5081,2.5135,2.513,2.5143,2.5156,2.5246,2.5272,2.5226,2.538,2.5339,2.5351,2.5359,2.5372,2.5382,2.5373,2.5193,0,0,0,0,0,2.4801,2.4864,2.4912,2.4996,2.5019,2.5049,2.5085,2.5092,2.5139,2.5158,2.5192,2.5238,2.5298,2.5337,2.5394,2.5496,2.5507,2.554,2.555,2.5558,2.5567,2.5621,2.5636,2.5479,2.5479,2.5479,0,0,2.4839,2.4879,2.4917,2.5003,2.5039,2.5102,2.5065,2.5134,2.518,2.5169,2.5254,2.528,2.5332,2.5427,2.5471,2.5452,2.5613,2.5567,2.5574,2.5578,2.563,2.5645,2.5658,2.5484,2.5483,2.5482,0,0,2.4939,2.4976,2.505,2.5087,2.5143,2.5162,2.518,2.5234,2.5251,2.5337,2.5329,2.5384,2.5488,2.5525,2.5557,2.5671,2.5661,2.569,2.5742,2.5795,2.5807,2.5818,2.5857,2.5871,2.5699,2.5699,2.5699,0,2.4978,2.5073,2.5088,2.5157,2.5194,2.5188,2.5261,2.5296,2.5368,2.5393,2.5371,2.55,2.5535,2.5638,2.5666,2.5693,2.5712,2.5682,2.5805,2.5816,2.5826,2.5863,2.5878,2.5702,2.5702,2.5702,2.5701,0,2.5117,2.5184,2.5236,2.5306,2.5349,2.542,2.5445,2.5486,2.5489,2.5511,2.5598,2.564,2.5705,2.573,2.5734,2.5834,2.582,2.5801,2.5761,2.5844,2.5879,2.5893,2.5706,2.5705,2.5704,2.5704,0,0,2.5237,2.5314,2.5333,2.5364,2.5425,2.5476,2.5547,2.5611,2.5646,2.5696,2.5754,2.5842,2.5825,2.5862,2.5869,2.5916,2.6001,2.5891,2.5893,2.5908,2.6112,2.6124,2.614,2.5996,2.5999,2.6001,2.6107,0,2.5341,2.5466,2.5481,2.5592,2.5652,2.5647,2.5708,2.5752,2.5774,2.5827,2.5852,2.5913,2.5887,2.5909,2.5955,2.5981,2.6042,2.5974,2.6049,2.6051,2.6033,2.6159,2.6172,2.6269,2.6121,2.6123,2.6125,0,2.5479,2.5533,2.5649,2.5702,2.5727,2.5782,2.5842,2.5894,2.5943,2.5956,2.5997,2.5999,2.6071,2.6029,2.6127,2.608,2.6112,2.613,2.6134,2.6139,2.6091,2.6166,2.6301,2.6315,2.6147,2.6145,2.6144,0,2.5551,2.5653,2.5736,2.5763,2.5827,2.5865,2.5893,2.5939,2.5977,2.6029,2.6054,2.6114,2.6146,2.6192,2.6209,2.6178,2.6306,2.6266,2.6317,2.6316,2.6342,2.634,2.6482,2.6366,2.6366,2.6366,2.6365,0,2.5665,2.5736,2.5769,2.582,2.5899,2.5916,2.5993,2.602,2.6061,2.6116,2.6116,2.6167,2.6188,2.6242,2.6257,2.6335,2.635,2.6361,2.6363,2.636,2.6358,2.6379,2.6372,2.637,2.6369,2.6368,2.6367,0,2.5758,2.5784,2.5873,2.5926,2.5941,2.5997,2.6042,2.609,2.6112,2.6181,2.6199,2.6232,2.6296,2.6319,2.6397,2.6406,2.6496,2.6494,2.6479,2.6479,2.6528,2.6522,2.6687,2.6709,2.6581,2.6582,2.6583,0,2.5828,2.5882,2.5941,2.5978,2.6008,2.6068,2.6106,2.6125,2.6165,2.6225,2.6266,2.633,2.6381,2.6484,2.6514,2.6573,2.6571,2.6625,2.658,2.6574,2.657,2.6565,2.657,2.6633,2.6634,2.6635,2.6636,0,2.5948,2.5958,2.6014,2.6074,2.612,2.6169,2.6216,2.6246,2.6271,2.6316,2.6382,2.6422,2.6502,2.6564,2.6625,2.6652,2.6648,2.665,2.6665,2.666,2.6649,2.6654,2.65,2.6646,2.6645,2.6644,2.6644,2.6643,2.603,2.6078,2.6127,2.6189,2.6226,2.627,2.6318,2.6346,2.6401,2.6467,2.6475,2.6545,2.6592,2.6673,2.6704,2.6759,2.6744,2.6765,2.677,2.6775,2.6777,2.6642,2.677,2.677,2.677,2.6769,2.6769,0,2.6148,2.618,2.6237,2.6303,2.6351,2.6344,2.6396,2.6436,2.6498,2.6543,2.6594,2.6669,2.673,2.6766,2.6827,2.6863,2.6863,2.6878,2.6875,2.6881,2.6788,2.6769,2.6878,2.6878,2.6878,2.6878,2.6878,2.6878,2.6216,2.6295,2.6311,2.6409,2.644,2.6509,2.6539,2.6579,2.6614,2.6698,2.6749,2.6773,2.6813,2.6877,2.6932,2.6941,2.6963,2.6979,2.6987,2.6899,2.6888,2.6877,2.6858,2.6985,2.6985,2.7075,2.7075,2.7076]},{"header":{"parameterUnit":"m.s-1","parameterCategory":1,"la1":30.2991,"la2":30.254,"lo1":-89.0895,"lo2":-89.0444,"dy":0.0017,"dx":0.0017,"nx":28,"ny":28,"refTime":"2023-09-11T09:00:00:Z","depth":0,"parameterNumber":3,"parameterNumberName":"V-component_of_WINDS"},"data":[0,0,0,0,0,0,0,0,0,0,0,0,0,0,0,0,0,0,0,0,0,0,0,0,0,0,0,0,0,0,0,0,0,0,0,0,0,0,0,0,0,0,0,0,0,0,0,0,0,0,0,0,0,0,0,0,0,0,0.9298,0.9299,0,0.9427,0.9429,0.943,0.9417,0.9415,0.9413,0.9411,0.9544,0.955,0.9555,0,0,0,0,0,0,0,0,0,0,0,0,0,0.9039,0.9044,0.9298,0.93,0.9301,0.9427,0.9429,0.9431,0.9417,0.9415,0.9413,0.941,0.9543,0.9549,0.9555,0,0,0,0,0,0,0,0,0,0,0,0,0,0.9158,0.9046,0.9298,0.931,0.9312,0.9427,0.9429,0.9431,0.9418,0.9415,0.9412,0.9409,0.954,0.9548,0.9556,0.9667,0,0,0.9581,0.9585,0,0,0,0,0,0,0,0,0.9152,0.9168,0.9306,0.9309,0.9312,0.9403,0.9386,0.951,0.9419,0.9378,0.9411,0.9408,0.95,0.9511,0.9542,0.9674,0.9679,0.9582,0.9587,0.959,0.9593,0,0,0,0,0,0,0,0.9144,0.9162,0.9349,0.9308,0.9312,0.9309,0.9322,0.941,0.9454,0.9381,0.9381,0.9396,0.9501,0.9534,0.9545,0.9681,0.9582,0.9589,0.9594,0.9597,0.9909,0.9912,0,0,0,0,0,0,0.9132,0.9156,0.9345,0.9353,0.9223,0.9316,0.9331,0.9377,0.9453,0.9462,0.9398,0.9395,0.9522,0.9536,0.955,0.9684,0.959,0.9598,0.9603,0.9906,0.991,0.9913,0,0,0,0,0,0,0.9127,0.9149,0.934,0.9254,0.9278,0.9323,0.9375,0.9381,0.9414,0.9466,0.9474,0.9425,0.952,0.9538,0.9638,0.9689,0.9602,0.9609,0.9902,0.9907,0.9912,0.9954,0,0,0,0,0,0,0.9119,0.9147,0.919,0.9255,0.9283,0.9426,0.9378,0.9386,0.9428,0.9425,0.9493,0.9501,0.9519,0.9626,0.9646,0.9698,0.9615,0.9897,0.9904,0.991,0.9949,0.996,0.997,0,0,0,0,0,0.911,0.9198,0.9193,0.9216,0.9337,0.9429,0.9445,0.9464,0.9433,0.9476,0.9509,0.9499,0.9679,0.9636,0.9659,0.9714,0.9894,0.9902,0.9909,0.9944,0.9958,0.997,0,0,0,0,0,0,0.9139,0.9207,0.9202,0.9313,0.9365,0.9427,0.9482,0.9478,0.9541,0.9535,0.9555,0.9571,0.9671,0.9702,0.9653,0.9825,0.9783,0.9795,0.9801,0.9815,0.9825,0.9816,0.9622,0,0,0,0,0,0.9158,0.9227,0.9282,0.9375,0.9401,0.9437,0.9478,0.9487,0.9543,0.9565,0.9605,0.9659,0.9728,0.9773,0.9839,0.9952,0.9967,1.0002,1.0012,1.0021,1.0032,1.0093,1.0109,0.9938,0.9938,0.9938,0,0,0.9199,0.9244,0.9286,0.9382,0.9424,0.9494,0.9456,0.9533,0.9585,0.9577,0.9673,0.9704,0.9766,0.9872,0.9922,0.9902,1.0082,1.0031,1.0037,1.0044,1.0103,1.0119,1.0133,0.9944,0.9943,0.9942,0,0,0.9309,0.935,0.9431,0.9473,0.9536,0.9559,0.9579,0.9641,0.9661,0.9758,0.9752,0.9815,0.9933,0.9977,1.0014,1.0138,1.0131,1.0159,1.0216,1.0275,1.0289,1.0301,1.0345,1.0361,1.017,1.017,1.017,0,0.9351,0.9457,0.9474,0.9551,0.9593,0.9587,0.9669,0.9709,0.9791,0.982,0.9796,0.9943,0.9984,1.0101,1.013,1.0161,1.0184,1.0152,1.0286,1.0298,1.0309,1.0351,1.0368,1.0173,1.0172,1.0172,1.0172,0,0.9506,0.958,0.9638,0.9716,0.9764,0.9844,0.9872,0.9918,0.9923,0.9948,1.0046,1.0094,1.017,1.0198,1.0203,1.0315,1.03,1.0281,1.0239,1.0328,1.0368,1.0385,1.0177,1.0176,1.0175,1.0174,0,0,0.964,0.9725,0.9746,0.9781,0.9849,0.9906,0.9984,1.0057,1.0097,1.0152,1.0219,1.0317,1.0299,1.0342,1.0352,1.0404,1.0499,1.0379,1.038,1.0399,1.0623,1.0638,1.0657,1.0494,1.0497,1.0499,1.0618,0,0.9757,0.9896,0.9912,1.0035,1.0103,1.0097,1.0165,1.0214,1.0239,1.03,1.0327,1.0397,1.0368,1.0394,1.0445,1.0476,1.0544,1.0468,1.0555,1.0558,1.0541,1.0678,1.0694,1.0804,1.0634,1.0637,1.0639,0,0.9913,0.9972,1.0102,1.0159,1.0188,1.0249,1.0316,1.0375,1.0429,1.0444,1.049,1.0493,1.0573,1.0527,1.0638,1.0585,1.0622,1.0642,1.0647,1.0657,1.0605,1.0691,1.0839,1.0856,1.0663,1.0661,1.066,0,0.9997,1.0109,1.0201,1.0231,1.03,1.0343,1.0374,1.0426,1.0468,1.0527,1.0554,1.0622,1.0659,1.071,1.0731,1.0695,1.084,1.0796,1.0854,1.0854,1.0886,1.0884,1.1043,1.0909,1.0908,1.0908,1.0908,0,1.0126,1.0206,1.024,1.0297,1.0385,1.0402,1.0489,1.0518,1.0564,1.0626,1.0625,1.0683,1.0706,1.0768,1.0784,1.0873,1.0889,1.0903,1.0907,1.0904,1.0902,1.0929,1.0922,1.0912,1.0911,1.0911,1.091,0,1.0236,1.0262,1.0362,1.0418,1.0434,1.0497,1.0546,1.06,1.0623,1.0702,1.0721,1.0758,1.083,1.0855,1.0943,1.0954,1.1057,1.1054,1.1039,1.1039,1.1097,1.1091,1.1279,1.1304,1.1152,1.1154,1.1155,0,1.0317,1.0378,1.0441,1.0482,1.0514,1.0581,1.0623,1.0642,1.0686,1.0752,1.0798,1.087,1.0928,1.1044,1.1078,1.1145,1.1144,1.1205,1.1154,1.1149,1.1145,1.1141,1.1147,1.1215,1.1216,1.1217,1.1218,0,1.0459,1.0468,1.0529,1.0595,1.0646,1.0699,1.075,1.0784,1.081,1.086,1.0933,1.0978,1.1067,1.1138,1.1206,1.1237,1.1232,1.1234,1.1251,1.1249,1.1238,1.1245,1.1065,1.123,1.1229,1.1228,1.1227,1.1227,1.0557,1.0611,1.0663,1.0731,1.0771,1.0818,1.0872,1.0901,1.0963,1.1036,1.1043,1.1122,1.1174,1.1264,1.1298,1.136,1.1343,1.1368,1.1375,1.1381,1.1385,1.1227,1.1373,1.1372,1.1372,1.1372,1.1372,0,1.0698,1.0731,1.0793,1.0864,1.0918,1.0907,1.0963,1.1008,1.1078,1.1126,1.1183,1.1267,1.1335,1.1374,1.1442,1.1484,1.1483,1.1501,1.1499,1.1506,1.1396,1.1375,1.15,1.15,1.15,1.15,1.15,1.15,1.0778,1.0868,1.0883,1.0992,1.1024,1.1101,1.1134,1.1177,1.1216,1.1309,1.1366,1.139,1.1435,1.1506,1.1567,1.1577,1.1602,1.1622,1.163,1.1527,1.1514,1.1501,1.1481,1.1627,1.1627,1.1735,1.1736,1.1736]}]]